Time,TemperatureF,DewpointF,PressureIn,WindDirection,WindDirectionDegrees,WindSpeedMPH,WindSpeedGustMPH,Humidity,HourlyPrecipIn,Conditions,Clouds,dailyrainin,SoftwareType,DateUTC
2013-07-08 00:01:00,71.4,70.0,29.35,West,270,0.0,0.0,96,0.00,,,0.00,Rainwise IP-100,2013-07-08 04:01:00,
2013-07-08 00:06:00,71.3,70.0,29.35,West,270,0.0,0.0,96,0.00,,,0.00,Rainwise IP-100,2013-07-08 04:06:00,
2013-07-08 00:11:00,71.3,70.5,29.35,West,270,0.0,3.0,97,0.00,,,0.00,Rainwise IP-100,2013-07-08 04:11:00,
2013-07-08 00:16:00,71.3,70.5,29.35,West,270,1.0,2.0,97,0.00,,,0.00,Rainwise IP-100,2013-07-08 04:16:00,
2013-07-08 00:21:00,71.4,70.5,29.35,WSW,247,0.0,3.0,97,0.00,,,0.00,Rainwise IP-100,2013-07-08 04:21:00,
2013-07-08 00:26:00,71.4,70.5,29.35,WSW,247,0.0,2.0,97,0.00,,,0.00,Rainwise IP-100,2013-07-08 04:26:00,
2013-07-08 00:31:00,71.3,70.0,29.35,WSW,247,0.0,1.0,96,0.00,,,0.00,Rainwise IP-100,2013-07-08 04:31:00,
2013-07-08 00:37:00,71.4,70.5,29.34,WSW,247,1.0,3.0,97,0.00,,,0.00,Rainwise IP-100,2013-07-08 04:37:00,
2013-07-08 00:42:00,71.4,70.0,29.34,NNE,22,1.0,3.0,96,0.00,,,0.00,Rainwise IP-100,2013-07-08 04:42:00,
2013-07-08 00:47:00,71.4,70.0,29.34,NNE,22,0.0,1.0,96,0.00,,,0.00,Rainwise IP-100,2013-07-08 04:47:00,
2013-07-08 00:52:00,71.4,70.0,29.34,ENE,67,0.0,2.0,96,0.00,,,0.00,Rainwise IP-100,2013-07-08 04:52:00,
2013-07-08 00:57:00,71.3,70.0,29.34,ENE,67,0.0,1.0,96,0.00,,,0.00,Rainwise IP-100,2013-07-08 04:57:00,
2013-07-08 01:02:00,70.9,70.0,29.34,ENE,67,0.0,0.0,97,0.00,,,0.00,Rainwise IP-100,2013-07-08 05:02:00,
2013-07-08 01:07:00,70.9,69.7,29.35,ENE,67,0.0,0.0,96,0.00,,,0.00,Rainwise IP-100,2013-07-08 05:07:00,
2013-07-08 01:12:00,70.9,69.7,29.35,ENE,67,0.0,0.0,96,0.00,,,0.00,Rainwise IP-100,2013-07-08 05:12:00,
2013-07-08 01:18:00,70.9,70.0,29.35,SSW,202,2.0,2.0,97,0.00,,,0.00,Rainwise IP-100,2013-07-08 05:18:00,
2013-07-08 01:23:00,70.9,70.0,29.34,SSW,202,0.0,2.0,97,0.00,,,0.00,Rainwise IP-100,2013-07-08 05:23:00,
2013-07-08 01:28:00,70.9,70.0,29.35,SSW,202,0.0,0.0,97,0.00,,,0.00,Rainwise IP-100,2013-07-08 05:28:00,
2013-07-08 01:33:00,70.9,70.0,29.35,SSW,202,0.0,0.0,97,0.00,,,0.00,Rainwise IP-100,2013-07-08 05:33:00,
2013-07-08 01:38:00,70.8,70.0,29.35,SSW,202,0.0,0.0,97,0.00,,,0.00,Rainwise IP-100,2013-07-08 05:38:00,
2013-07-08 01:43:00,70.7,69.7,29.35,SSW,202,0.0,0.0,97,0.00,,,0.00,Rainwise IP-100,2013-07-08 05:43:00,
2013-07-08 01:48:00,70.7,69.7,29.35,SSW,202,0.0,0.0,97,0.00,,,0.00,Rainwise IP-100,2013-07-08 05:48:00,
2013-07-08 01:54:00,70.6,69.7,29.35,SSW,202,0.0,0.0,97,0.00,,,0.00,Rainwise IP-100,2013-07-08 05:54:00,
2013-07-08 01:59:00,70.7,69.7,29.35,SSW,202,0.0,2.0,97,0.00,,,0.00,Rainwise IP-100,2013-07-08 05:59:00,
2013-07-08 02:04:00,70.6,69.7,29.35,SSW,202,0.0,1.0,97,0.00,,,0.00,Rainwise IP-100,2013-07-08 06:04:00,
2013-07-08 02:09:00,70.6,69.7,29.35,SSW,202,0.0,1.0,97,0.00,,,0.00,Rainwise IP-100,2013-07-08 06:09:00,
2013-07-08 02:14:00,70.5,69.7,29.35,SSW,202,0.0,0.0,97,0.00,,,0.00,Rainwise IP-100,2013-07-08 06:14:00,
2013-07-08 02:19:00,70.4,70.0,29.35,East,90,0.0,3.0,98,0.00,,,0.00,Rainwise IP-100,2013-07-08 06:19:00,
2013-07-08 02:24:00,70.4,69.7,29.34,East,90,0.0,0.0,97,0.00,,,0.00,Rainwise IP-100,2013-07-08 06:24:00,
2013-07-08 02:29:00,70.4,69.7,29.34,East,90,0.0,0.0,97,0.00,,,0.00,Rainwise IP-100,2013-07-08 06:29:00,
2013-07-08 02:34:00,70.3,69.3,29.33,East,90,0.0,0.0,96,0.00,,,0.00,Rainwise IP-100,2013-07-08 06:34:00,
2013-07-08 02:39:00,70.2,69.0,29.33,East,90,0.0,0.0,96,0.00,,,0.00,Rainwise IP-100,2013-07-08 06:39:00,
2013-07-08 02:45:00,70.3,69.7,29.33,East,90,0.0,0.0,97,0.00,,,0.00,Rainwise IP-100,2013-07-08 06:45:00,
2013-07-08 02:50:00,69.9,69.7,29.34,WNW,292,1.0,2.0,99,0.00,,,0.00,Rainwise IP-100,2013-07-08 06:50:00,
2013-07-08 02:55:00,70.0,69.7,29.33,WNW,292,0.0,1.0,99,0.00,,,0.00,Rainwise IP-100,2013-07-08 06:55:00,
2013-07-08 03:00:00,70.1,69.7,29.33,WNW,292,0.0,2.0,99,0.00,,,0.00,Rainwise IP-100,2013-07-08 07:00:00,
2013-07-08 03:05:00,70.0,69.7,29.33,WNW,292,0.0,0.0,98,0.00,,,0.00,Rainwise IP-100,2013-07-08 07:05:00,
2013-07-08 03:10:00,69.9,69.7,29.33,WNW,292,0.0,0.0,98,0.00,,,0.00,Rainwise IP-100,2013-07-08 07:10:00,
2013-07-08 03:15:00,69.8,69.3,29.33,WNW,292,1.0,1.0,99,0.00,,,0.00,Rainwise IP-100,2013-07-08 07:15:00,
2013-07-08 03:21:00,69.8,69.3,29.33,WNW,292,0.0,2.0,99,0.00,,,0.00,Rainwise IP-100,2013-07-08 07:21:00,
2013-07-08 03:26:00,69.8,69.3,29.33,WNW,292,0.0,0.0,98,0.00,,,0.00,Rainwise IP-100,2013-07-08 07:26:00,
2013-07-08 03:31:00,69.7,69.3,29.33,WNW,292,0.0,2.0,99,0.00,,,0.00,Rainwise IP-100,2013-07-08 07:31:00,
2013-07-08 03:36:00,69.5,69.3,29.33,WNW,292,0.0,1.0,98,0.00,,,0.00,Rainwise IP-100,2013-07-08 07:36:00,
2013-07-08 03:41:00,69.4,68.5,29.33,WNW,292,0.0,0.0,97,0.00,,,0.00,Rainwise IP-100,2013-07-08 07:41:00,
2013-07-08 03:46:00,69.3,69.0,29.33,WNW,292,0.0,1.0,98,0.00,,,0.00,Rainwise IP-100,2013-07-08 07:46:00,
2013-07-08 03:51:00,69.3,68.5,29.33,WNW,292,0.0,1.0,97,0.00,,,0.00,Rainwise IP-100,2013-07-08 07:51:00,
2013-07-08 03:56:00,69.2,68.5,29.33,WNW,292,0.0,0.0,97,0.00,,,0.00,Rainwise IP-100,2013-07-08 07:56:00,
2013-07-08 04:02:00,69.2,68.5,29.33,WNW,292,0.0,0.0,97,0.00,,,0.00,Rainwise IP-100,2013-07-08 08:02:00,
2013-07-08 04:07:00,68.9,68.5,29.33,WNW,292,1.0,2.0,98,0.00,,,0.00,Rainwise IP-100,2013-07-08 08:07:00,
2013-07-08 04:12:00,68.9,67.5,29.33,WNW,292,0.0,2.0,96,0.00,,,0.00,Rainwise IP-100,2013-07-08 08:12:00,
2013-07-08 04:17:00,68.7,68.0,29.33,WNW,292,1.0,3.0,98,0.00,,,0.00,Rainwise IP-100,2013-07-08 08:17:00,
2013-07-08 04:22:00,68.9,69.0,29.33,WSW,247,1.0,4.0,100,0.00,,,0.00,Rainwise IP-100,2013-07-08 08:22:00,
2013-07-08 04:27:00,69.1,69.0,29.33,WSW,247,2.0,3.0,100,0.00,,,0.00,Rainwise IP-100,2013-07-08 08:27:00,
2013-07-08 04:32:00,69.2,69.3,29.33,WSW,247,3.0,4.0,100,0.00,,,0.00,Rainwise IP-100,2013-07-08 08:32:00,
2013-07-08 04:37:00,69.2,69.3,29.33,WSW,247,0.0,3.0,100,0.00,,,0.00,Rainwise IP-100,2013-07-08 08:37:00,
2013-07-08 04:42:00,69.2,69.3,29.34,WSW,247,1.0,2.0,100,0.00,,,0.00,Rainwise IP-100,2013-07-08 08:42:00,
2013-07-08 04:48:00,69.1,69.0,29.34,WSW,247,0.0,1.0,100,0.00,,,0.00,Rainwise IP-100,2013-07-08 08:48:00,
2013-07-08 04:53:00,69.0,69.0,29.34,WSW,247,0.0,0.0,100,0.00,,,0.00,Rainwise IP-100,2013-07-08 08:53:00,
2013-07-08 04:58:00,68.9,68.5,29.34,WSW,247,0.0,0.0,99,0.00,,,0.00,Rainwise IP-100,2013-07-08 08:58:00,
2013-07-08 05:03:00,68.8,68.5,29.34,WSW,247,0.0,0.0,99,0.00,,,0.00,Rainwise IP-100,2013-07-08 09:03:00,
2013-07-08 05:08:00,68.7,68.0,29.34,WSW,247,1.0,0.0,99,0.00,,,0.00,Rainwise IP-100,2013-07-08 09:08:00,
2013-07-08 05:13:00,68.9,69.0,29.34,WSW,247,1.0,2.0,100,0.00,,,0.00,Rainwise IP-100,2013-07-08 09:13:00,
2013-07-08 05:18:00,68.9,68.5,29.34,WSW,247,0.0,2.0,99,0.00,,,0.00,Rainwise IP-100,2013-07-08 09:18:00,
2013-07-08 05:24:00,68.9,68.5,29.34,WSW,247,1.0,0.0,99,0.00,,,0.00,Rainwise IP-100,2013-07-08 09:24:00,
2013-07-08 05:29:00,68.9,69.0,29.35,WSW,247,2.0,4.0,100,0.00,,,0.00,Rainwise IP-100,2013-07-08 09:29:00,
2013-07-08 05:34:00,68.9,68.5,29.35,WSW,247,0.0,2.0,99,0.00,,,0.00,Rainwise IP-100,2013-07-08 09:34:00,
2013-07-08 05:39:00,68.9,68.5,29.35,WSW,247,0.0,0.0,99,0.00,,,0.00,Rainwise IP-100,2013-07-08 09:39:00,
2013-07-08 05:44:00,68.9,69.0,29.35,WSW,247,0.0,2.0,100,0.00,,,0.00,Rainwise IP-100,2013-07-08 09:44:00,
2013-07-08 05:49:00,69.2,69.3,29.35,WSW,247,0.0,5.0,100,0.00,,,0.00,Rainwise IP-100,2013-07-08 09:49:00,
2013-07-08 05:54:00,69.3,69.0,29.35,WSW,247,1.0,3.0,98,0.00,,,0.00,Rainwise IP-100,2013-07-08 09:54:00,
2013-07-08 06:00:00,69.3,69.0,29.35,WSW,247,0.0,2.0,98,0.00,,,0.00,Rainwise IP-100,2013-07-08 10:00:00,
2013-07-08 06:05:00,69.3,69.0,29.35,WSW,247,0.0,1.0,98,0.00,,,0.00,Rainwise IP-100,2013-07-08 10:05:00,
2013-07-08 06:10:00,69.4,69.0,29.35,WSW,247,0.0,1.0,99,0.00,,,0.00,Rainwise IP-100,2013-07-08 10:10:00,
2013-07-08 06:15:00,69.3,69.3,29.35,WSW,247,0.0,0.0,100,0.00,,,0.00,Rainwise IP-100,2013-07-08 10:15:00,
2013-07-08 06:20:00,69.3,69.0,29.35,WSW,247,2.0,2.0,99,0.00,,,0.00,Rainwise IP-100,2013-07-08 10:20:00,
2013-07-08 06:25:00,69.5,69.7,29.35,WSW,247,0.0,4.0,100,0.00,,,0.00,Rainwise IP-100,2013-07-08 10:25:00,
2013-07-08 06:30:00,69.7,69.7,29.35,WSW,247,0.0,0.0,100,0.00,,,0.00,Rainwise IP-100,2013-07-08 10:30:00,
2013-07-08 06:35:00,69.8,69.7,29.35,WSW,247,0.0,0.0,100,0.00,,,0.00,Rainwise IP-100,2013-07-08 10:35:00,
2013-07-08 06:41:00,70.0,70.0,29.35,WSW,247,0.0,0.0,100,0.00,,,0.00,Rainwise IP-100,2013-07-08 10:41:00,
2013-07-08 06:46:00,70.2,70.0,29.36,WSW,247,0.0,0.0,100,0.00,,,0.00,Rainwise IP-100,2013-07-08 10:46:00,
2013-07-08 06:51:00,70.5,70.5,29.35,ESE,112,1.0,0.0,100,0.00,,,0.00,Rainwise IP-100,2013-07-08 10:51:00,
2013-07-08 06:56:00,70.6,70.0,29.35,East,90,0.0,2.0,99,0.00,,,0.00,Rainwise IP-100,2013-07-08 10:56:00,
2013-07-08 07:01:00,70.7,70.0,29.35,East,90,3.0,3.0,99,0.00,,,0.00,Rainwise IP-100,2013-07-08 11:01:00,
2013-07-08 07:06:00,70.6,70.0,29.36,East,90,2.0,3.0,99,0.00,,,0.00,Rainwise IP-100,2013-07-08 11:06:00,
2013-07-08 07:11:00,70.6,70.0,29.36,East,90,1.0,2.0,99,0.00,,,0.00,Rainwise IP-100,2013-07-08 11:11:00,
2013-07-08 07:17:00,70.7,70.0,29.36,East,90,1.0,3.0,99,0.00,,,0.00,Rainwise IP-100,2013-07-08 11:17:00,
2013-07-08 07:22:00,70.7,70.0,29.36,East,90,0.0,2.0,99,0.00,,,0.00,Rainwise IP-100,2013-07-08 11:22:00,
2013-07-08 07:27:00,70.9,70.5,29.36,East,90,0.0,0.0,99,0.00,,,0.00,Rainwise IP-100,2013-07-08 11:27:00,
2013-07-08 07:32:00,70.9,70.5,29.36,East,90,2.0,2.0,99,0.00,,,0.00,Rainwise IP-100,2013-07-08 11:32:00,
2013-07-08 07:37:00,71.2,70.5,29.37,East,90,0.0,3.0,98,0.00,,,0.00,Rainwise IP-100,2013-07-08 11:37:00,
2013-07-08 07:42:00,71.2,70.5,29.37,East,90,2.0,3.0,97,0.00,,,0.00,Rainwise IP-100,2013-07-08 11:42:00,
2013-07-08 07:45:00,71.0,70.0,29.37,ENE,67,3.0,3.0,98,0.00,,,0.00,Rainwise IP-100,2013-07-08 11:45:00,
2013-07-08 07:50:00,70.9,70.5,29.37,ENE,67,3.0,4.0,99,0.00,,,0.00,Rainwise IP-100,2013-07-08 11:50:00,
2013-07-08 07:55:00,71.2,71.0,29.37,East,90,0.0,4.0,99,0.00,,,0.00,Rainwise IP-100,2013-07-08 11:55:00,
2013-07-08 08:00:00,71.3,71.0,29.37,East,90,1.0,3.0,99,0.00,,,0.00,Rainwise IP-100,2013-07-08 12:00:00,
2013-07-08 08:05:00,71.4,71.0,29.37,ENE,67,1.0,5.0,99,0.00,,,0.00,Rainwise IP-100,2013-07-08 12:05:00,
2013-07-08 08:10:00,71.3,70.5,29.37,ENE,67,0.0,2.0,98,0.00,,,0.00,Rainwise IP-100,2013-07-08 12:10:00,
2013-07-08 08:16:00,71.4,70.5,29.37,ENE,67,0.0,2.0,98,0.00,,,0.00,Rainwise IP-100,2013-07-08 12:16:00,
2013-07-08 08:21:00,71.8,71.3,29.37,ENE,67,4.0,4.0,99,0.00,,,0.00,Rainwise IP-100,2013-07-08 12:21:00,
2013-07-08 08:26:00,72.7,72.0,29.37,NE,45,0.0,5.0,97,0.00,,,0.00,Rainwise IP-100,2013-07-08 12:26:00,
2013-07-08 08:31:00,73.3,72.7,29.37,NE,45,4.0,4.0,97,0.00,,,0.00,Rainwise IP-100,2013-07-08 12:31:00,
2013-07-08 08:36:00,73.7,72.7,29.37,NE,45,0.0,4.0,97,0.00,,,0.00,Rainwise IP-100,2013-07-08 12:36:00,
2013-07-08 08:41:00,74.7,73.7,29.38,NNE,22,2.0,3.0,97,0.00,,,0.00,Rainwise IP-100,2013-07-08 12:41:00,
2013-07-08 08:46:00,74.9,74.0,29.38,East,90,2.0,5.0,97,0.00,,,0.00,Rainwise IP-100,2013-07-08 12:46:00,
2013-07-08 08:52:00,75.2,73.7,29.38,East,90,2.0,4.0,96,0.00,,,0.00,Rainwise IP-100,2013-07-08 12:52:00,
2013-07-08 08:57:00,75.5,74.3,29.38,East,90,0.0,3.0,97,0.00,,,0.00,Rainwise IP-100,2013-07-08 12:57:00,
2013-07-08 09:02:00,76.2,74.3,29.38,ENE,67,2.0,5.0,95,0.00,,,0.00,Rainwise IP-100,2013-07-08 13:02:00,
2013-07-08 09:07:00,77.3,76.3,29.39,ENE,67,0.0,3.0,96,0.00,,,0.00,Rainwise IP-100,2013-07-08 13:07:00,
2013-07-08 09:12:00,79.0,77.3,29.39,WNW,292,0.0,4.0,95,0.00,,,0.00,Rainwise IP-100,2013-07-08 13:12:00,
2013-07-08 09:17:00,80.8,77.7,29.39,NNW,337,0.0,4.0,91,0.00,,,0.00,Rainwise IP-100,2013-07-08 13:17:00,
2013-07-08 09:22:00,81.8,71.0,29.40,WNW,292,1.0,6.0,70,0.00,,,0.00,Rainwise IP-100,2013-07-08 13:22:00,
2013-07-08 09:27:00,82.2,73.7,29.40,NW,315,1.0,4.0,76,0.00,,,0.00,Rainwise IP-100,2013-07-08 13:27:00,
2013-07-08 09:33:00,82.2,76.3,29.41,NNW,337,0.0,4.0,82,0.00,,,0.00,Rainwise IP-100,2013-07-08 13:33:00,
2013-07-08 09:38:00,83.2,73.3,29.41,NNW,337,4.0,6.0,72,0.00,,,0.00,Rainwise IP-100,2013-07-08 13:38:00,
2013-07-08 09:43:00,82.6,72.3,29.41,West,270,3.0,7.0,71,0.00,,,0.00,Rainwise IP-100,2013-07-08 13:43:00,
2013-07-08 09:48:00,79.9,71.0,29.41,SE,135,3.0,9.0,74,0.00,,,0.00,Rainwise IP-100,2013-07-08 13:48:00,
2013-07-08 09:53:00,79.5,70.5,29.41,SW,225,1.0,6.0,74,0.00,,,0.00,Rainwise IP-100,2013-07-08 13:53:00,
2013-07-08 09:58:00,80.5,72.3,29.41,WNW,292,5.0,7.0,76,0.00,,,0.00,Rainwise IP-100,2013-07-08 13:58:00,
2013-07-08 10:03:00,81.6,72.3,29.41,North,360,4.0,6.0,73,0.00,,,0.00,Rainwise IP-100,2013-07-08 14:03:00,
2013-07-08 10:09:00,83.0,69.7,29.41,North,360,6.0,6.0,64,0.00,,,0.00,Rainwise IP-100,2013-07-08 14:09:00,
2013-07-08 10:14:00,82.9,72.7,29.41,East,90,0.0,5.0,71,0.00,,,0.00,Rainwise IP-100,2013-07-08 14:14:00,
2013-07-08 10:19:00,82.3,72.3,29.41,SW,225,0.0,9.0,72,0.00,,,0.00,Rainwise IP-100,2013-07-08 14:19:00,
2013-07-08 10:24:00,82.1,69.3,29.41,SW,225,1.0,6.0,65,0.00,,,0.00,Rainwise IP-100,2013-07-08 14:24:00,
2013-07-08 10:29:00,83.1,71.0,29.41,SW,225,2.0,6.0,67,0.00,,,0.00,Rainwise IP-100,2013-07-08 14:29:00,
2013-07-08 10:34:00,82.7,68.0,29.41,West,270,5.0,10.0,61,0.00,,,0.00,Rainwise IP-100,2013-07-08 14:34:00,
2013-07-08 10:39:00,81.4,68.5,29.41,SW,225,6.0,7.0,65,0.00,,,0.00,Rainwise IP-100,2013-07-08 14:39:00,
2013-07-08 10:44:00,81.5,69.3,29.41,NW,315,3.0,6.0,66,0.00,,,0.00,Rainwise IP-100,2013-07-08 14:44:00,
2013-07-08 10:50:00,80.9,69.0,29.41,SW,225,5.0,7.0,66,0.00,,,0.00,Rainwise IP-100,2013-07-08 14:50:00,
2013-07-08 10:55:00,80.9,69.3,29.41,SW,225,4.0,7.0,67,0.00,,,0.00,Rainwise IP-100,2013-07-08 14:55:00,
2013-07-08 11:00:00,81.8,69.3,29.41,SW,225,7.0,9.0,66,0.00,,,0.00,Rainwise IP-100,2013-07-08 15:00:00,
2013-07-08 11:05:00,82.0,66.7,29.41,SSW,202,5.0,10.0,60,0.00,,,0.00,Rainwise IP-100,2013-07-08 15:05:00,
2013-07-08 11:10:00,83.4,72.3,29.41,WNW,292,7.0,7.0,69,0.00,,,0.00,Rainwise IP-100,2013-07-08 15:10:00,
2013-07-08 11:15:00,83.5,69.7,29.41,NW,315,7.0,9.0,63,0.00,,,0.00,Rainwise IP-100,2013-07-08 15:15:00,
2013-07-08 11:20:00,82.9,69.0,29.41,West,270,10.0,10.0,62,0.00,,,0.00,Rainwise IP-100,2013-07-08 15:20:00,
2013-07-08 11:26:00,81.5,68.5,29.41,WNW,292,3.0,10.0,64,0.00,,,0.00,Rainwise IP-100,2013-07-08 15:26:00,
2013-07-08 11:31:00,81.6,66.7,29.41,West,270,5.0,9.0,61,0.00,,,0.00,Rainwise IP-100,2013-07-08 15:31:00,
2013-07-08 11:36:00,82.1,68.5,29.41,WSW,247,5.0,12.0,64,0.00,,,0.00,Rainwise IP-100,2013-07-08 15:36:00,
2013-07-08 11:41:00,82.2,68.5,29.41,SW,225,3.0,10.0,63,0.00,,,0.00,Rainwise IP-100,2013-07-08 15:41:00,
2013-07-08 11:46:00,81.6,69.3,29.41,WSW,247,7.0,9.0,66,0.00,,,0.00,Rainwise IP-100,2013-07-08 15:46:00,
2013-07-08 11:51:00,82.1,68.5,29.41,NW,315,8.0,10.0,64,0.00,,,0.00,Rainwise IP-100,2013-07-08 15:51:00,
2013-07-08 11:56:00,82.6,70.0,29.41,WSW,247,7.0,11.0,66,0.00,,,0.00,Rainwise IP-100,2013-07-08 15:56:00,
2013-07-08 12:01:00,83.1,69.0,29.41,NW,315,1.0,13.0,62,0.00,,,0.00,Rainwise IP-100,2013-07-08 16:01:00,
2013-07-08 12:06:00,83.2,67.0,29.41,WSW,247,6.0,12.0,58,0.00,,,0.00,Rainwise IP-100,2013-07-08 16:06:00,
2013-07-08 12:12:00,83.7,67.5,29.41,West,270,6.0,9.0,58,0.00,,,0.00,Rainwise IP-100,2013-07-08 16:12:00,
2013-07-08 12:17:00,83.7,70.0,29.41,SW,225,4.0,8.0,63,0.00,,,0.00,Rainwise IP-100,2013-07-08 16:17:00,
2013-07-08 12:22:00,83.9,69.7,29.41,ESE,112,5.0,7.0,62,0.00,,,0.00,Rainwise IP-100,2013-07-08 16:22:00,
2013-07-08 12:27:00,83.9,68.5,29.41,WSW,247,6.0,7.0,59,0.00,,,0.00,Rainwise IP-100,2013-07-08 16:27:00,
2013-07-08 12:32:00,82.4,67.5,29.42,WNW,292,6.0,10.0,61,0.00,,,0.00,Rainwise IP-100,2013-07-08 16:32:00,
2013-07-08 12:37:00,82.9,69.3,29.41,WSW,247,4.0,12.0,63,0.00,,,0.00,Rainwise IP-100,2013-07-08 16:37:00,
2013-07-08 12:42:00,83.2,69.0,29.41,WSW,247,9.0,10.0,62,0.00,,,0.00,Rainwise IP-100,2013-07-08 16:42:00,
2013-07-08 12:47:00,81.8,68.5,29.42,SW,225,12.0,13.0,64,0.00,,,0.00,Rainwise IP-100,2013-07-08 16:47:00,
2013-07-08 12:53:00,80.4,68.5,29.42,WSW,247,6.0,13.0,67,0.00,,,0.00,Rainwise IP-100,2013-07-08 16:53:00,
2013-07-08 12:58:00,80.5,70.5,29.42,SW,225,5.0,9.0,71,0.00,,,0.00,Rainwise IP-100,2013-07-08 16:58:00,
2013-07-08 13:03:00,81.2,69.3,29.42,West,270,6.0,13.0,67,0.00,,,0.00,Rainwise IP-100,2013-07-08 17:03:00,
2013-07-08 13:08:00,81.6,69.3,29.42,SW,225,14.0,14.0,66,0.00,,,0.00,Rainwise IP-100,2013-07-08 17:08:00,
2013-07-08 13:13:00,80.9,69.3,29.42,WSW,247,9.0,16.0,67,0.00,,,0.00,Rainwise IP-100,2013-07-08 17:13:00,
2013-07-08 13:18:00,80.6,68.0,29.42,SW,225,7.0,13.0,66,0.00,,,0.00,Rainwise IP-100,2013-07-08 17:18:00,
2013-07-08 13:23:00,80.6,68.5,29.42,WSW,247,10.0,12.0,67,0.00,,,0.00,Rainwise IP-100,2013-07-08 17:23:00,
2013-07-08 13:28:00,80.9,70.0,29.41,WSW,247,9.0,12.0,69,0.00,,,0.00,Rainwise IP-100,2013-07-08 17:28:00,
2013-07-08 13:34:00,80.3,69.0,29.41,West,270,9.0,14.0,68,0.00,,,0.00,Rainwise IP-100,2013-07-08 17:34:00,
2013-07-08 13:39:00,80.3,68.0,29.41,West,270,8.0,16.0,66,0.00,,,0.00,Rainwise IP-100,2013-07-08 17:39:00,
2013-07-08 13:44:00,79.3,68.5,29.41,West,270,6.0,14.0,69,0.00,,,0.00,Rainwise IP-100,2013-07-08 17:44:00,
2013-07-08 13:49:00,78.9,68.0,29.41,WSW,247,8.0,13.0,69,0.00,,,0.00,Rainwise IP-100,2013-07-08 17:49:00,
2013-07-08 13:51:00,78.7,68.5,29.41,WSW,247,10.0,12.0,71,0.00,,,0.00,Rainwise IP-100,2013-07-08 17:51:00,
2013-07-08 13:56:00,79.1,69.0,29.41,WNW,292,7.0,10.0,71,0.00,,,0.00,Rainwise IP-100,2013-07-08 17:56:00,
2013-07-08 14:01:00,79.3,70.0,29.40,WSW,247,6.0,13.0,73,0.00,,,0.00,Rainwise IP-100,2013-07-08 18:01:00,
2013-07-08 14:06:00,79.3,69.0,29.41,WSW,247,7.0,12.0,70,0.00,,,0.00,Rainwise IP-100,2013-07-08 18:06:00,
2013-07-08 14:11:00,79.8,69.7,29.40,South,180,6.0,13.0,72,0.00,,,0.00,Rainwise IP-100,2013-07-08 18:11:00,
2013-07-08 14:17:00,80.7,69.7,29.40,SW,225,7.0,11.0,69,0.00,,,0.00,Rainwise IP-100,2013-07-08 18:17:00,
2013-07-08 14:22:00,81.1,69.3,29.41,SW,225,6.0,14.0,67,0.00,,,0.00,Rainwise IP-100,2013-07-08 18:22:00,
2013-07-08 14:27:00,80.9,69.0,29.41,SW,225,5.0,14.0,66,0.00,,,0.00,Rainwise IP-100,2013-07-08 18:27:00,
2013-07-08 14:32:00,80.8,69.0,29.41,WSW,247,8.0,12.0,67,0.00,,,0.00,Rainwise IP-100,2013-07-08 18:32:00,
2013-07-08 14:37:00,82.1,69.7,29.41,WSW,247,6.0,10.0,66,0.00,,,0.00,Rainwise IP-100,2013-07-08 18:37:00,
2013-07-08 14:42:00,82.4,71.0,29.41,SW,225,10.0,12.0,68,0.00,,,0.00,Rainwise IP-100,2013-07-08 18:42:00,
2013-07-08 14:47:00,82.2,69.0,29.41,WNW,292,5.0,15.0,64,0.00,,,0.00,Rainwise IP-100,2013-07-08 18:47:00,
2013-07-08 14:52:00,82.0,69.3,29.41,NW,315,6.0,13.0,65,0.00,,,0.00,Rainwise IP-100,2013-07-08 18:52:00,
2013-07-08 14:57:00,81.7,68.0,29.41,West,270,5.0,10.0,63,0.00,,,0.00,Rainwise IP-100,2013-07-08 18:57:00,
2013-07-08 15:03:00,80.7,69.3,29.41,West,270,3.0,10.0,68,0.00,,,0.00,Rainwise IP-100,2013-07-08 19:03:00,
2013-07-08 15:08:00,81.6,68.0,29.41,West,270,9.0,12.0,63,0.00,,,0.00,Rainwise IP-100,2013-07-08 19:08:00,
2013-07-08 15:13:00,81.7,67.5,29.41,West,270,7.0,15.0,62,0.00,,,0.00,Rainwise IP-100,2013-07-08 19:13:00,
2013-07-08 15:18:00,81.8,67.5,29.41,SSW,202,3.0,15.0,62,0.00,,,0.00,Rainwise IP-100,2013-07-08 19:18:00,
2013-07-08 15:23:00,81.9,67.5,29.41,WSW,247,6.0,10.0,62,0.00,,,0.00,Rainwise IP-100,2013-07-08 19:23:00,
2013-07-08 15:28:00,81.9,69.3,29.41,NW,315,6.0,11.0,65,0.00,,,0.00,Rainwise IP-100,2013-07-08 19:28:00,
2013-07-08 15:33:00,82.8,69.0,29.41,West,270,6.0,9.0,63,0.00,,,0.00,Rainwise IP-100,2013-07-08 19:33:00,
2013-07-08 15:39:00,82.9,68.5,29.41,West,270,7.0,11.0,61,0.00,,,0.00,Rainwise IP-100,2013-07-08 19:39:00,
2013-07-08 15:44:00,82.8,67.5,29.41,West,270,6.0,13.0,60,0.00,,,0.00,Rainwise IP-100,2013-07-08 19:44:00,
2013-07-08 15:49:00,83.1,67.5,29.41,SW,225,10.0,10.0,60,0.00,,,0.00,Rainwise IP-100,2013-07-08 19:49:00,
2013-07-08 15:54:00,83.3,68.5,29.41,West,270,6.0,12.0,61,0.00,,,0.00,Rainwise IP-100,2013-07-08 19:54:00,
2013-07-08 15:59:00,83.4,67.0,29.41,WSW,247,4.0,9.0,58,0.00,,,0.00,Rainwise IP-100,2013-07-08 19:59:00,
2013-07-08 16:04:00,82.7,67.0,29.41,WSW,247,4.0,8.0,59,0.00,,,0.00,Rainwise IP-100,2013-07-08 20:04:00,
2013-07-08 16:09:00,81.8,66.3,29.41,SW,225,4.0,7.0,60,0.00,,,0.00,Rainwise IP-100,2013-07-08 20:09:00,
2013-07-08 16:14:00,81.6,67.5,29.41,NW,315,3.0,6.0,62,0.00,,,0.00,Rainwise IP-100,2013-07-08 20:14:00,
2013-07-08 16:19:00,81.2,67.0,29.41,NW,315,3.0,7.0,62,0.00,,,0.00,Rainwise IP-100,2013-07-08 20:19:00,
2013-07-08 16:25:00,81.1,69.0,29.41,NW,315,2.0,7.0,66,0.00,,,0.00,Rainwise IP-100,2013-07-08 20:25:00,
2013-07-08 16:30:00,81.2,69.7,29.41,North,360,6.0,7.0,68,0.00,,,0.00,Rainwise IP-100,2013-07-08 20:30:00,
2013-07-08 16:35:00,81.5,70.5,29.41,NNW,337,2.0,6.0,69,0.00,,,0.00,Rainwise IP-100,2013-07-08 20:35:00,
2013-07-08 16:40:00,82.5,70.0,29.41,North,360,3.0,6.0,66,0.00,,,0.00,Rainwise IP-100,2013-07-08 20:40:00,
2013-07-08 16:45:00,82.5,69.3,29.41,North,360,4.0,8.0,64,0.00,,,0.00,Rainwise IP-100,2013-07-08 20:45:00,
2013-07-08 16:50:00,82.6,70.0,29.41,WNW,292,4.0,6.0,66,0.00,,,0.00,Rainwise IP-100,2013-07-08 20:50:00,
2013-07-08 16:55:00,82.3,69.7,29.41,NNW,337,2.0,7.0,66,0.00,,,0.00,Rainwise IP-100,2013-07-08 20:55:00,
2013-07-08 17:00:00,82.4,69.7,29.41,West,270,5.0,7.0,65,0.00,,,0.00,Rainwise IP-100,2013-07-08 21:00:00,
2013-07-08 17:05:00,81.9,69.7,29.41,WNW,292,3.0,7.0,66,0.00,,,0.00,Rainwise IP-100,2013-07-08 21:05:00,
2013-07-08 17:10:00,80.9,68.5,29.41,WNW,292,7.0,10.0,65,0.00,,,0.00,Rainwise IP-100,2013-07-08 21:10:00,
2013-07-08 17:16:00,80.6,69.0,29.41,NNW,337,5.0,10.0,68,0.00,,,0.00,Rainwise IP-100,2013-07-08 21:16:00,
2013-07-08 17:21:00,80.6,70.0,29.40,WSW,247,3.0,7.0,70,0.00,,,0.00,Rainwise IP-100,2013-07-08 21:21:00,
2013-07-08 17:26:00,80.9,70.0,29.40,NW,315,3.0,6.0,69,0.00,,,0.00,Rainwise IP-100,2013-07-08 21:26:00,
2013-07-08 17:31:00,81.4,69.3,29.40,NE,45,6.0,8.0,67,0.00,,,0.00,Rainwise IP-100,2013-07-08 21:31:00,
2013-07-08 17:36:00,81.6,69.7,29.40,NNE,22,4.0,9.0,67,0.00,,,0.00,Rainwise IP-100,2013-07-08 21:36:00,
2013-07-08 17:41:00,81.7,70.5,29.40,NNE,22,3.0,9.0,69,0.00,,,0.00,Rainwise IP-100,2013-07-08 21:41:00,
2013-07-08 17:46:00,81.9,69.7,29.40,North,360,7.0,9.0,66,0.00,,,0.00,Rainwise IP-100,2013-07-08 21:46:00,
2013-07-08 17:52:00,81.0,69.3,29.40,NW,315,7.0,9.0,67,0.00,,,0.00,Rainwise IP-100,2013-07-08 21:52:00,
2013-07-08 17:57:00,80.7,69.7,29.40,WNW,292,6.0,7.0,69,0.00,,,0.00,Rainwise IP-100,2013-07-08 21:57:00,
2013-07-08 18:02:00,80.5,68.5,29.40,West,270,3.0,7.0,67,0.00,,,0.00,Rainwise IP-100,2013-07-08 22:02:00,
2013-07-08 18:07:00,80.0,69.7,29.40,NNE,22,2.0,6.0,71,0.00,,,0.00,Rainwise IP-100,2013-07-08 22:07:00,
2013-07-08 18:12:00,79.7,68.5,29.40,NW,315,2.0,6.0,69,0.00,,,0.00,Rainwise IP-100,2013-07-08 22:12:00,
2013-07-08 18:17:00,79.5,69.7,29.40,NNE,22,0.0,5.0,72,0.00,,,0.00,Rainwise IP-100,2013-07-08 22:17:00,
2013-07-08 18:22:00,79.6,69.0,29.40,NNW,337,3.0,6.0,70,0.00,,,0.00,Rainwise IP-100,2013-07-08 22:22:00,
2013-07-08 18:28:00,80.2,70.0,29.40,NNW,337,1.0,5.0,71,0.00,,,0.00,Rainwise IP-100,2013-07-08 22:28:00,
2013-07-08 18:33:00,81.4,68.5,29.40,North,360,2.0,7.0,65,0.00,,,0.00,Rainwise IP-100,2013-07-08 22:33:00,
2013-07-08 18:38:00,81.2,68.5,29.40,NNW,337,5.0,9.0,65,0.00,,,0.00,Rainwise IP-100,2013-07-08 22:38:00,
2013-07-08 18:43:00,80.3,69.3,29.40,NNW,337,1.0,6.0,69,0.00,,,0.00,Rainwise IP-100,2013-07-08 22:43:00,
2013-07-08 18:48:00,79.5,68.5,29.41,NNW,337,1.0,5.0,69,0.00,,,0.00,Rainwise IP-100,2013-07-08 22:48:00,
2013-07-08 18:53:00,79.2,69.3,29.41,NNW,337,0.0,6.0,71,0.00,,,0.00,Rainwise IP-100,2013-07-08 22:53:00,
2013-07-08 18:58:00,78.9,69.3,29.41,NNW,337,0.0,0.0,72,0.00,,,0.00,Rainwise IP-100,2013-07-08 22:58:00,
2013-07-08 19:03:00,78.8,69.3,29.41,NNE,22,0.0,2.0,73,0.00,,,0.00,Rainwise IP-100,2013-07-08 23:03:00,
2013-07-08 19:09:00,78.6,69.0,29.41,ENE,67,2.0,3.0,72,0.00,,,0.00,Rainwise IP-100,2013-07-08 23:09:00,
2013-07-08 19:14:00,77.9,69.7,29.41,ENE,67,0.0,5.0,75,0.00,,,0.00,Rainwise IP-100,2013-07-08 23:14:00,
2013-07-08 19:19:00,77.6,69.3,29.41,ENE,67,2.0,3.0,75,0.00,,,0.00,Rainwise IP-100,2013-07-08 23:19:00,
2013-07-08 19:24:00,77.2,69.3,29.41,ENE,67,0.0,6.0,76,0.00,,,0.00,Rainwise IP-100,2013-07-08 23:24:00,
2013-07-08 19:29:00,76.9,69.7,29.42,NNE,22,2.0,5.0,78,0.00,,,0.00,Rainwise IP-100,2013-07-08 23:29:00,
2013-07-08 19:34:00,76.5,69.7,29.42,NE,45,1.0,6.0,79,0.00,,,0.00,Rainwise IP-100,2013-07-08 23:34:00,
2013-07-08 19:39:00,76.1,69.0,29.42,NNE,22,0.0,5.0,79,0.00,,,0.00,Rainwise IP-100,2013-07-08 23:39:00,
2013-07-08 19:45:00,75.8,69.7,29.42,NE,45,3.0,3.0,81,0.00,,,0.00,Rainwise IP-100,2013-07-08 23:45:00,
2013-07-08 19:50:00,75.6,69.3,29.42,NNE,22,1.0,3.0,81,0.00,,,0.00,Rainwise IP-100,2013-07-08 23:50:00,
2013-07-08 19:55:00,75.3,69.3,29.42,NNE,22,2.0,3.0,81,0.00,,,0.00,Rainwise IP-100,2013-07-08 23:55:00,
2013-07-08 20:00:00,75.0,69.0,29.42,NNW,337,2.0,4.0,81,0.00,,,0.00,Rainwise IP-100,2013-07-09 00:00:00,
2013-07-08 20:05:00,74.8,69.3,29.42,NNW,337,1.0,4.0,83,0.00,,,0.00,Rainwise IP-100,2013-07-09 00:05:00,
2013-07-08 20:10:00,74.6,69.7,29.42,NNW,337,2.0,4.0,84,0.00,,,0.00,Rainwise IP-100,2013-07-09 00:10:00,
2013-07-08 20:15:00,74.3,69.3,29.42,North,360,1.0,4.0,84,0.00,,,0.00,Rainwise IP-100,2013-07-09 00:15:00,
2013-07-08 20:20:00,74.2,69.3,29.42,NNE,22,2.0,4.0,84,0.00,,,0.00,Rainwise IP-100,2013-07-09 00:20:00,
2013-07-08 20:26:00,74.0,69.3,29.41,North,360,3.0,5.0,85,0.00,,,0.00,Rainwise IP-100,2013-07-09 00:26:00,
2013-07-08 20:31:00,73.9,69.7,29.41,North,360,0.0,6.0,86,0.00,,,0.00,Rainwise IP-100,2013-07-09 00:31:00,
2013-07-08 20:36:00,73.9,69.0,29.42,NNW,337,0.0,4.0,84,0.00,,,0.00,Rainwise IP-100,2013-07-09 00:36:00,
2013-07-08 20:41:00,73.8,69.0,29.42,NNW,337,0.0,0.0,84,0.00,,,0.00,Rainwise IP-100,2013-07-09 00:41:00,
2013-07-08 20:46:00,73.7,69.0,29.43,North,360,3.0,3.0,85,0.00,,,0.00,Rainwise IP-100,2013-07-09 00:46:00,
2013-07-08 20:51:00,73.7,69.3,29.43,North,360,2.0,6.0,86,0.00,,,0.00,Rainwise IP-100,2013-07-09 00:51:00,
2013-07-08 20:56:00,73.5,69.7,29.43,NNE,22,1.0,6.0,87,0.00,,,0.00,Rainwise IP-100,2013-07-09 00:56:00,
2013-07-08 21:01:00,73.4,69.3,29.43,NNE,22,1.0,5.0,87,0.00,,,0.00,Rainwise IP-100,2013-07-09 01:01:00,
2013-07-08 21:06:00,73.3,69.3,29.43,North,360,1.0,3.0,87,0.00,,,0.00,Rainwise IP-100,2013-07-09 01:06:00,
2013-07-08 21:12:00,73.2,69.3,29.43,NE,45,4.0,5.0,87,0.00,,,0.00,Rainwise IP-100,2013-07-09 01:12:00,
2013-07-08 21:17:00,73.1,69.0,29.44,NE,45,0.0,4.0,87,0.00,,,0.00,Rainwise IP-100,2013-07-09 01:17:00,
2013-07-08 21:22:00,73.1,69.7,29.44,NW,315,2.0,4.0,89,0.00,,,0.00,Rainwise IP-100,2013-07-09 01:22:00,
2013-07-08 21:27:00,73.1,69.7,29.45,North,360,1.0,6.0,89,0.00,,,0.00,Rainwise IP-100,2013-07-09 01:27:00,
2013-07-08 21:32:00,73.0,69.7,29.45,NE,45,3.0,6.0,89,0.18,,,0.04,Rainwise IP-100,2013-07-09 01:32:00,
2013-07-08 21:37:00,72.4,69.3,29.45,East,90,0.0,7.0,90,0.54,,,0.09,Rainwise IP-100,2013-07-09 01:37:00,
2013-07-08 21:42:00,71.7,69.0,29.45,East,90,0.0,4.0,91,0.48,,,0.11,Rainwise IP-100,2013-07-09 01:42:00,
2013-07-08 21:47:00,71.4,69.0,29.45,North,360,0.0,4.0,92,0.12,,,0.12,Rainwise IP-100,2013-07-09 01:47:00,
2013-07-08 21:53:00,71.1,68.5,29.45,NNE,22,0.0,5.0,92,0.06,,,0.12,Rainwise IP-100,2013-07-09 01:53:00,
2013-07-08 21:54:00,71.1,68.5,29.45,NNE,22,0.0,5.0,92,0.06,,,0.12,Rainwise IP-100,2013-07-09 01:54:00,
2013-07-08 21:59:00,70.9,68.0,29.45,North,360,0.0,4.0,91,0.00,,,0.12,Rainwise IP-100,2013-07-09 01:59:00,
2013-07-08 22:04:00,70.9,68.5,29.45,NNW,337,0.0,3.0,92,0.00,,,0.12,Rainwise IP-100,2013-07-09 02:04:00,
2013-07-08 22:09:00,70.9,68.5,29.45,NNE,22,0.0,5.0,92,0.00,,,0.13,Rainwise IP-100,2013-07-09 02:09:00,
2013-07-08 22:14:00,70.9,69.0,29.45,NE,45,2.0,6.0,94,0.12,,,0.15,Rainwise IP-100,2013-07-09 02:14:00,
2013-07-08 22:19:00,70.8,69.0,29.45,NE,45,0.0,3.0,93,0.18,,,0.15,Rainwise IP-100,2013-07-09 02:19:00,
2013-07-08 22:24:00,70.5,69.0,29.45,NE,45,0.0,4.0,94,0.12,,,0.16,Rainwise IP-100,2013-07-09 02:24:00,
2013-07-08 22:29:00,70.4,69.0,29.45,NE,45,0.0,2.0,94,0.06,,,0.16,Rainwise IP-100,2013-07-09 02:29:00,
2013-07-08 22:35:00,70.4,68.5,29.45,ENE,67,0.0,0.0,93,0.06,,,0.17,Rainwise IP-100,2013-07-09 02:35:00,
2013-07-08 22:40:00,70.3,68.0,29.45,SSE,157,0.0,3.0,92,0.06,,,0.17,Rainwise IP-100,2013-07-09 02:40:00,
2013-07-08 22:45:00,70.4,69.0,29.45,SSE,157,0.0,0.0,95,0.00,,,0.17,Rainwise IP-100,2013-07-09 02:45:00,
2013-07-08 22:50:00,70.4,69.3,29.45,SSE,157,0.0,0.0,96,0.00,,,0.17,Rainwise IP-100,2013-07-09 02:50:00,
2013-07-08 22:55:00,70.3,69.0,29.45,SSE,157,0.0,0.0,95,0.00,,,0.17,Rainwise IP-100,2013-07-09 02:55:00,
2013-07-08 23:00:00,70.3,69.0,29.45,ESE,112,0.0,3.0,94,0.00,,,0.17,Rainwise IP-100,2013-07-09 03:00:00,
2013-07-08 23:05:00,70.3,69.0,29.44,SE,135,2.0,0.0,94,0.00,,,0.17,Rainwise IP-100,2013-07-09 03:05:00,
2013-07-08 23:11:00,70.2,68.5,29.45,SE,135,0.0,2.0,94,0.00,,,0.17,Rainwise IP-100,2013-07-09 03:11:00,
2013-07-08 23:16:00,70.1,69.0,29.45,SW,225,0.0,2.0,96,0.00,,,0.17,Rainwise IP-100,2013-07-09 03:16:00,
2013-07-08 23:21:00,69.9,69.3,29.45,SW,225,1.0,6.0,97,0.00,,,0.17,Rainwise IP-100,2013-07-09 03:21:00,
2013-07-08 23:26:00,69.7,69.0,29.45,West,270,0.0,3.0,97,0.00,,,0.17,Rainwise IP-100,2013-07-09 03:26:00,
2013-07-08 23:31:00,69.5,69.0,29.45,West,270,0.0,1.0,97,0.00,,,0.17,Rainwise IP-100,2013-07-09 03:31:00,
2013-07-08 23:36:00,69.3,67.5,29.45,West,270,0.0,0.0,95,0.00,,,0.17,Rainwise IP-100,2013-07-09 03:36:00,
2013-07-08 23:41:00,69.3,67.5,29.46,West,270,0.0,0.0,95,0.00,,,0.17,Rainwise IP-100,2013-07-09 03:41:00,
2013-07-08 23:46:00,69.7,68.5,29.45,West,270,0.0,0.0,96,0.00,,,0.17,Rainwise IP-100,2013-07-09 03:46:00,
2013-07-08 23:51:00,69.7,68.5,29.45,West,270,0.0,0.0,96,0.00,,,0.17,Rainwise IP-100,2013-07-09 03:51:00,
2013-07-08 23:57:00,69.7,68.0,29.45,West,270,0.0,0.0,95,0.00,,,0.17,Rainwise IP-100,2013-07-09 03:57:00,